Location: ??????????
(48.5701°N, 37.7703°E)
Time: 20:04:07
(UTC+00:00)

Cosmos 1378 - Pass Details

Date: 14 July 2020
Orbit: 493 x 501 km, 82.5° (Epoch: 11 August)

Event Time Altitude Azimuth Distance (km) Brightness Sun altitude
Rises 00:15:50 0° 352° (N) 2,608 7.5 -11.1°
Reaches altitude 10° 00:17:58 10° 354° (N) 1,720 6.5 -10.9°
Maximum altitude 00:21:44 73° 80° (E) 530 3.4 -10.5°
Drops below altitude 10° 00:25:27 10° 165° (SSE) 1,705 5.5 -10.1°
Enters shadow 00:27:15 - 167° (SSE) 2,448 6.3 -9.9°
